Kremmling, CO

6:58 PM MST on November 16, 2019 (GMT -0700)
Kremmling

Weather History for K20V - October, 2019

Change the Weather History Date:

Monday, October 21, 2019

  Actual Average Record
Temperature  
Mean Temperature 30 °F -  
Max Temperature 37 °F - 75 °F (2003)
Min Temperature 24 °F - 18 °F (2016)
Degree Days  
Heating Degree Days 34    
Month to date heating degree days 513  
Cooling Degree Days 0    
Month to date cooling degree days 0  
Moisture  
Dew Point 24 °F    
Average Humidity 74    
Maximum Humidity 93    
Minimum Humidity 59    
Precipitation  
Precipitation 0.00 in - 0.03 in (2006)
Snow  
Snow 0.00 in - - ()
Snow Depth 0.00 in    
Sea Level Pressure  
Sea Level Pressure 30.12 in    
Wind  
Wind Speed 9 mph ()    
Max Wind Speed 18 mph    
Max Gust Speed 30 mph    
Visibility 8.4 miles    
Events Snow    
T = Trace of Precipitation, MM = Missing Value Source: Averaged Metar Reports

Daily Weather History Graph

Daily Weather History Graph

Search for Another Location

Airport or City:

Astronomy

Oct. 21, 2019 Rise Set
Actual Time 7:22 AM MDT 6:17 PM MDT
Civil Twilight 6:54 AM MDT 6:44 PM MDT
Nautical Twilight 6:23 AM MDT 7:16 PM MDT
Astronomical Twilight 5:51 AM MDT 7:47 PM MDT
Moon No Moon Rise 2:42 PM MDT (10/21)
Length of Visible Light 11h 50m
Length of Day
10h 55m
Waning Gibbous, 47% of the Moon is Illuminated
Oct 21
Waning Gibbous
Oct 27
New
Nov 4
First Quarter
Nov 12
Full
Nov 19
Last Quarter

Hourly Weather History & Observations

Time (MDT) Temp. Windchill Dew Point Humidity Pressure Visibility Wind Dir Wind Speed Gust Speed Precip Events Conditions
12:11 AM 30.2 °F 19.8 °F 21.2 °F 69% 30.04 in 10.0 mi WSW 13.8 mph - N/A   Overcast
12:29 AM 30.2 °F 20.2 °F 21.2 °F 69% 30.04 in 10.0 mi West 12.7 mph 18.4 mph N/A   Overcast
12:52 AM 30.2 °F 21.3 °F 21.2 °F 69% 30.04 in 10.0 mi WSW 10.4 mph - N/A   Overcast
1:12 AM 30.2 °F 21.3 °F 21.2 °F 69% 30.04 in 10.0 mi WSW 10.4 mph - N/A   Overcast
1:30 AM 30.2 °F 20.8 °F 21.2 °F 69% 30.04 in 10.0 mi WSW 11.5 mph - N/A   Overcast
1:48 AM 30.2 °F 21.3 °F 21.2 °F 69% 30.04 in 10.0 mi WSW 10.4 mph - N/A   Overcast
2:12 AM 30.2 °F 21.9 °F 21.2 °F 69% 30.04 in 10.0 mi WSW 9.2 mph - N/A   Overcast
2:30 AM 30.2 °F 21.3 °F 21.2 °F 69% 30.04 in 10.0 mi WSW 10.4 mph - N/A   Overcast
2:48 AM 30.2 °F 21.3 °F 21.2 °F 69% 30.04 in 10.0 mi West 10.4 mph - N/A   Overcast
3:12 AM 30.2 °F 23.4 °F 19.4 °F 64% 30.03 in 10.0 mi WSW 6.9 mph - N/A   Overcast
3:30 AM 30.2 °F 24.3 °F 19.4 °F 64% 30.03 in 10.0 mi WSW 5.8 mph - N/A   Overcast
3:48 AM 30.2 °F 23.4 °F 19.4 °F 64% 30.02 in 10.0 mi WSW 6.9 mph - N/A   Overcast
4:12 AM 30.2 °F 21.3 °F 19.4 °F 64% 30.03 in 10.0 mi WSW 10.4 mph - N/A   Overcast
4:30 AM 30.2 °F 20.8 °F 19.4 °F 64% 30.02 in 10.0 mi WSW 11.5 mph - N/A   Overcast
4:48 AM 30.2 °F 23.4 °F 21.2 °F 69% 30.02 in 10.0 mi West 6.9 mph - N/A   Overcast
5:12 AM 26.6 °F 19.1 °F 19.4 °F 74% 30.02 in 10.0 mi WSW 6.9 mph - N/A   Overcast
5:30 AM 26.6 °F 18.2 °F 19.4 °F 74% 30.02 in 10.0 mi WSW 8.1 mph - N/A   Overcast
5:48 AM 26.6 °F 20.0 °F 21.2 °F 80% 30.02 in 10.0 mi West 5.8 mph - N/A   Overcast
6:12 AM 26.6 °F 21.2 °F 23.0 °F 86% 30.03 in 7.0 mi West 4.6 mph - N/A Snow Light Snow
6:30 AM 26.6 °F 20.0 °F 23.0 °F 86% 30.04 in 4.0 mi West 5.8 mph - N/A Snow Light Snow
6:48 AM 26.6 °F - 23.0 °F 86% 30.04 in 3.0 mi Calm Calm - N/A Snow Light Snow
7:12 AM 24.8 °F - 23.0 °F 93% 30.04 in 1.8 mi Calm Calm - N/A Snow Light Snow
7:30 AM 24.8 °F 20.5 °F 23.0 °F 93% 30.04 in 1.2 mi NW 3.5 mph - N/A Snow Light Snow
7:48 AM 24.8 °F 19.1 °F 23.0 °F 93% 30.04 in 1.8 mi WNW 4.6 mph - N/A Snow Light Snow
8:12 AM 26.6 °F 21.2 °F 23.0 °F 86% 30.06 in 4.0 mi West 4.6 mph - N/A Snow Light Snow
8:30 AM 26.6 °F 18.2 °F 23.0 °F 86% 30.06 in 5.0 mi West 8.1 mph - N/A Snow Light Snow
8:48 AM 26.6 °F 17.5 °F 23.0 °F 86% 30.07 in 7.0 mi West 9.2 mph - N/A Snow Light Snow
9:12 AM 26.6 °F 17.5 °F 23.0 °F 86% 30.08 in 4.0 mi West 9.2 mph - N/A Snow Light Snow
9:30 AM 26.6 °F 17.5 °F 23.0 °F 86% 30.09 in 3.0 mi WSW 9.2 mph - N/A Snow Light Snow
9:54 AM 30.2 °F 20.2 °F 24.8 °F 80% 30.09 in 7.0 mi West 12.7 mph 18.4 mph N/A   Overcast
10:12 AM 30.2 °F 20.2 °F 23.0 °F 75% 30.09 in 10.0 mi WSW 12.7 mph 18.4 mph N/A   Overcast
10:30 AM 30.2 °F 19.8 °F 23.0 °F 75% 30.09 in 5.0 mi West 13.8 mph 19.6 mph N/A Snow Light Snow
10:54 AM 32.0 °F 23.0 °F 24.8 °F 75% 30.09 in 10.0 mi West 11.5 mph 18.4 mph N/A Snow Light Snow
11:12 AM 32.0 °F 21.6 °F 26.6 °F 80% 30.09 in 7.0 mi WSW 15.0 mph 20.7 mph N/A Snow Light Snow
11:30 AM 32.0 °F 22.1 °F 26.6 °F 80% 30.09 in 7.0 mi WSW 13.8 mph 18.4 mph N/A Snow Light Snow
11:54 AM 32.0 °F 23.0 °F 26.6 °F 80% 30.10 in 5.0 mi WSW 11.5 mph 19.6 mph N/A Snow Light Snow
12:12 PM 32.0 °F 23.0 °F 26.6 °F 80% 30.11 in 7.0 mi WSW 11.5 mph 17.3 mph N/A Snow Light Snow
12:30 PM 32.0 °F 24.8 °F 28.4 °F 87% 30.10 in 10.0 mi West 8.1 mph - N/A Snow Light Snow
12:54 PM 33.8 °F 26.4 °F 26.6 °F 75% 30.11 in 10.0 mi West 9.2 mph - N/A   Overcast
1:12 PM 32.0 °F 26.4 °F 28.4 °F 87% 30.11 in 5.0 mi WNW 5.8 mph - N/A Snow Light Snow
1:30 PM 33.8 °F 30.8 °F 28.4 °F 81% 30.11 in 7.0 mi West 3.5 mph - N/A Snow Light Snow
1:54 PM 33.8 °F 26.4 °F 24.8 °F 70% 30.12 in 10.0 mi NNW 9.2 mph 16.1 mph N/A   Overcast
2:12 PM 33.8 °F 24.8 °F 23.0 °F 65% 30.12 in 10.0 mi NNW 12.7 mph 17.3 mph N/A   Overcast
2:30 PM 33.8 °F 27.0 °F 23.0 °F 65% 30.11 in 10.0 mi WNW 8.1 mph - N/A   Mostly Cloudy
2:53 PM 35.6 °F 30.7 °F 23.0 °F 60% 30.12 in 10.0 mi NW 5.8 mph - N/A   Overcast
3:11 PM 35.6 °F 28.0 °F 23.0 °F 60% 30.12 in 10.0 mi NW 10.4 mph 21.9 mph N/A   Mostly Cloudy
3:29 PM 35.6 °F 28.0 °F 26.6 °F 70% 30.13 in 10.0 mi West 10.4 mph 25.3 mph N/A   Mostly Cloudy
3:52 PM 37.4 °F 31.4 °F 26.6 °F 65% 30.13 in 10.0 mi WNW 8.1 mph 21.9 mph N/A   Scattered Clouds
4:12 PM 35.6 °F 26.6 °F 24.8 °F 65% 30.14 in 10.0 mi West 13.8 mph 25.3 mph N/A   Mostly Cloudy
4:30 PM 32.0 °F 24.2 °F 30.2 °F 93% 30.14 in 2.0 mi West 9.2 mph 17.3 mph N/A Snow Light Snow
4:52 PM 33.8 °F 27.0 °F 28.4 °F 81% 30.15 in 7.0 mi West 8.1 mph 21.9 mph N/A Snow Light Snow
5:12 PM 33.8 °F 25.3 °F 26.6 °F 75% 30.16 in 10.0 mi West 11.5 mph 21.9 mph N/A Snow Light Snow
5:30 PM 32.0 °F 24.2 °F 28.4 °F 87% 30.17 in 7.0 mi NW 9.2 mph - N/A Snow Light Snow
5:48 PM 32.0 °F 25.6 °F 28.4 °F 87% 30.17 in 4.0 mi North 6.9 mph - N/A Snow Light Snow
6:13 PM 33.8 °F 28.6 °F 28.4 °F 81% 30.17 in 10.0 mi WNW 5.8 mph - N/A Snow Light Snow
6:31 PM 33.8 °F 25.3 °F 26.6 °F 75% 30.18 in 10.0 mi West 11.5 mph 16.1 mph N/A   Mostly Cloudy
6:49 PM 33.8 °F 24.8 °F 23.0 °F 65% 30.18 in 10.0 mi WNW 12.7 mph 19.6 mph N/A   Scattered Clouds
7:12 PM 33.8 °F 22.8 °F 23.0 °F 65% 30.20 in 10.0 mi WNW 18.4 mph 29.9 mph N/A   Mostly Cloudy
7:30 PM 33.8 °F 24.8 °F 23.0 °F 65% 30.22 in 10.0 mi WNW 12.7 mph 16.1 mph N/A   Scattered Clouds
7:53 PM 33.8 °F 25.3 °F 23.0 °F 65% 30.23 in 10.0 mi West 11.5 mph 18.4 mph N/A   Mostly Cloudy
8:12 PM 33.8 °F 25.8 °F 26.6 °F 75% 30.24 in 10.0 mi West 10.4 mph - N/A   Overcast
8:30 PM 33.8 °F 25.3 °F 23.0 °F 65% 30.24 in 10.0 mi WNW 11.5 mph 18.4 mph N/A   Overcast
8:48 PM 33.8 °F 26.4 °F 23.0 °F 65% 30.25 in 10.0 mi WNW 9.2 mph - N/A   Overcast
9:12 PM 32.0 °F 26.4 °F 26.6 °F 80% 30.26 in 10.0 mi West 5.8 mph - N/A   Overcast
9:30 PM 32.0 °F - 26.6 °F 80% 30.26 in 10.0 mi Calm Calm - N/A   Overcast
9:49 PM 33.8 °F 25.8 °F 23.0 °F 65% 30.27 in 10.0 mi NW 10.4 mph - N/A   Overcast
10:12 PM 33.8 °F 27.0 °F 23.0 °F 65% 30.28 in 10.0 mi NW 8.1 mph - N/A   Overcast
10:30 PM 33.8 °F 28.6 °F 23.0 °F 65% 30.28 in 10.0 mi NW 5.8 mph - N/A   Overcast
10:48 PM 33.8 °F 29.6 °F 23.0 °F 65% 30.28 in 10.0 mi NNW 4.6 mph - N/A   Overcast
11:12 PM 32.0 °F 28.7 °F 24.8 °F 75% 30.29 in 10.0 mi WNW 3.5 mph - N/A   Overcast
11:30 PM 32.0 °F 28.7 °F 23.0 °F 69% 30.29 in 10.0 mi West 3.5 mph - N/A   Overcast
11:48 PM 32.0 °F 26.4 °F 23.0 °F 69% 30.29 in 10.0 mi West 5.8 mph - N/A   Overcast